Weather History for Quillayute, WA

Change the Weather History Date:

Thursday, December 13, 2012

  Actual Average Record
Temperature  
Mean Temperature 41 °F 40 °F  
Max Temperature 43 °F 46 °F 62 °F (1997)
Min Temperature 39 °F 34 °F 20 °F (1978)
Degree Days  
Heating Degree Days 24 25  
Month to date heating degree days 317  
Since 1 July heating degree days 2031  
Cooling Degree Days 0 0  
Month to date cooling degree days 0  
Year to date cooling degree days 19  
Moisture  
Dew Point 39 °F    
Average Humidity 92    
Maximum Humidity 100    
Minimum Humidity 81    
Precipitation  
Precipitation 0.55 in 0.41 in 4.46 in (1979)
Month to date precipitation 5.74  
Year to date precipitation 92.29  
Sea Level Pressure  
Sea Level Pressure 29.87 in    
Wind  
Wind Speed 4 mph (SE)    
Max Wind Speed 10 mph    
Max Gust Speed 16 mph    
Visibility 5 miles    
Events Rain    
T = Trace of Precipitation, MM = Missing Value Source: NWS Daily Summary

Daily Weather History Graph

Daily Weather History Graph

Search for Another Location

Airport:

Trip Planner

Search our weather history database for the weather conditions in past years. The results will help you decide how hot, cold, wet, or windy it might be!

Date:

Astronomy

Dec. 13, 2012 Rise Set
Actual Time 8:00 AM PST 4:25 PM PST
Civil Twilight 7:23 AM PST 5:01 PM PST
Nautical Twilight 6:44 AM PST 5:41 PM PST
Astronomical Twilight 6:06 AM PST 6:18 PM PST
Moon 8:12 AM PST (12/13) 5:16 PM PST (12/13)
Length of Visible Light 9h 37m
Length of Day
8h 25m
New Moon, 0% of the Moon is Illuminated
Dec 13
New Moon
Dec 19
First Quarter
Dec 28
Full
Jan 4
Last Quarter
Jan 11
New

Hourly Weather History & Observations

Time (PST) Temp. Windchill Dew Point Humidity Pressure Visibility Wind Dir Wind Speed Gust Speed Precip Events Conditions
12:24 AM 39.2 °F - 37.4 °F 93% 30.00 in 7.0 mi Calm Calm - N/A   Overcast
12:53 AM 39.0 °F - 37.9 °F 96% 30.01 in 6.0 mi Calm Calm - N/A   Overcast
1:53 AM 39.9 °F - 39.0 °F 97% 30.02 in 6.0 mi Calm Calm - 0.00 in Rain Light Rain
2:53 AM 39.0 °F - 37.9 °F 96% 30.02 in 7.0 mi Calm Calm - 0.00 in   Overcast
3:53 AM 39.9 °F 37.8 °F 37.9 °F 93% 30.03 in 7.0 mi East 3.5 mph - N/A   Overcast
4:53 AM 39.0 °F 34.8 °F 37.9 °F 96% 29.99 in 7.0 mi East 5.8 mph - N/A   Mostly Cloudy
5:53 AM 39.9 °F 37.8 °F 37.0 °F 89% 29.99 in 7.0 mi East 3.5 mph - N/A   Overcast
6:53 AM 39.9 °F - 37.0 °F 89% 29.98 in 8.0 mi Calm Calm - N/A   Overcast
7:53 AM 39.9 °F 36.7 °F 36.0 °F 86% 29.97 in 7.0 mi ESE 4.6 mph - N/A   Overcast
8:53 AM 39.9 °F - 37.0 °F 89% 29.96 in 6.0 mi Calm Calm - N/A   Overcast
9:53 AM 41.0 °F 39.0 °F 37.9 °F 89% 29.95 in 6.0 mi SE 3.5 mph - N/A   Overcast
10:53 AM 42.1 °F 40.2 °F 37.9 °F 85% 29.94 in 6.0 mi SSE 3.5 mph - N/A   Overcast
11:53 AM 43.0 °F 41.3 °F 39.0 °F 86% 29.92 in 5.0 mi SSE 3.5 mph - 0.00 in Rain Light Rain
12:17 PM 42.8 °F 38.0 °F 37.4 °F 81% 29.89 in 6.0 mi SE 8.1 mph - 0.00 in   Overcast
12:44 PM 42.8 °F 38.0 °F 37.4 °F 81% 29.88 in 1.8 mi SSE 8.1 mph - N/A Rain Light Rain
12:53 PM 42.1 °F 39.2 °F 37.9 °F 85% 29.88 in 2.5 mi Variable 4.6 mph - 0.01 in Rain Light Rain
1:29 PM 42.8 °F 40.1 °F 39.2 °F 87% 29.86 in 5.0 mi Variable 4.6 mph - 0.02 in Rain Light Rain
1:53 PM 41.0 °F 37.1 °F 39.0 °F 93% 29.85 in 4.0 mi Variable 5.8 mph - 0.03 in Rain Light Rain
2:05 PM 41.0 °F 38.0 °F 39.2 °F 93% 29.84 in 2.5 mi SSE 4.6 mph - 0.01 in Rain Light Rain
2:25 PM 41.0 °F 35.8 °F 39.2 °F 93% 29.84 in 1.8 mi SSE 8.1 mph - N/A Rain Light Rain
3:53 PM 41.0 °F 39.0 °F 39.2 °F 93% 29.81 in 1.8 mi SSE 3.5 mph - N/A Rain Light Rain
4:14 PM 41.0 °F 38.0 °F 39.2 °F 93% 29.81 in 2.5 mi Variable 4.6 mph - 0.03 in Rain Light Rain
4:53 PM 41.0 °F 37.1 °F 39.2 °F 93% 29.79 in 2.5 mi SE 5.8 mph - N/A Rain Light Rain
5:21 PM 41.0 °F 37.1 °F 39.2 °F 93% 29.79 in 3.0 mi SSE 5.8 mph - 0.05 in Rain Light Rain
5:53 PM 41.0 °F 36.4 °F 39.9 °F 96% 29.79 in 3.0 mi SE 6.9 mph - 0.08 in Rain Light Rain
6:53 PM 41.0 °F 37.1 °F 39.9 °F 96% 29.78 in 4.0 mi SE 5.8 mph - 0.07 in Rain Light Rain
7:53 PM 41.0 °F 35.8 °F 39.9 °F 96% 29.77 in 2.5 mi SE 8.1 mph - 0.07 in Rain Light Rain
8:16 PM 41.0 °F 35.8 °F 39.2 °F 93% 29.76 in 3.0 mi SE 8.1 mph - 0.03 in Rain Light Rain
8:53 PM 39.9 °F 36.7 °F 39.0 °F 97% 29.76 in 4.0 mi SE 4.6 mph - 0.05 in Rain Light Rain
9:25 PM 39.2 °F 35.0 °F 39.2 °F 100% 29.75 in 5.0 mi ESE 5.8 mph - 0.02 in Rain Light Rain
9:44 PM 39.2 °F 35.9 °F 39.2 °F 100% 29.75 in 4.0 mi ESE 4.6 mph - N/A Rain Light Rain
9:53 PM 39.9 °F 34.5 °F 39.0 °F 97% 29.75 in 3.0 mi ESE 8.1 mph - 0.03 in Rain Light Rain
10:53 PM 39.9 °F 35.1 °F 39.0 °F 97% 29.75 in 4.0 mi East 6.9 mph - 0.02 in   Overcast
11:05 PM 39.2 °F 35.0 °F 39.2 °F 100% 29.74 in 2.5 mi East 5.8 mph - N/A   Overcast
11:12 PM 39.2 °F 35.9 °F 39.2 °F 100% 29.74 in 4.0 mi ESE 4.6 mph - N/A   Overcast
11:53 PM 41.0 °F 38.0 °F 39.0 °F 93% 29.75 in 8.0 mi East 4.6 mph - N/A   Overcast